This is the latest recevied weather packets stored in our database for station/object ENRA. If no packets are shown the sender has not sent any weather packets the latest 10 day(s).
| Time | Temp. | Humidity | Pressure | Rain* | Wind** | Luminosity | Snow |
|---|---|---|---|---|---|---|---|
| 1788309187 | 5° C | 10% | - | - | - | - | - |
| 1788307387 | 5° C | 10% | - | - | - | - | - |
| 1788305588 | 5° C | 10% | - | - | - | - | - |
| 1788303787 | 5.56° C | 93% | 1006 hPa | - | - | - | - |
| 1788301986 | 5.56° C | 10% | - | - | - | - | - |
| 1788300187 | 6.67° C | 93% | 1007 hPa | - | - | - | - |
| 1788298387 | 6.67° C | 10% | - | - | - | - | - |
| 1788296588 | 7.78° C | 93% | 1007 hPa | - | - | - | - |
| 1788294787 | 6.67° C | 93% | 1007 hPa | - | - | - | - |
| 1788292986 | 8.89° C | 87% | 1007 hPa | - | - | - | - |
| 1788291186 | 8.89° C | 87% | 1007 hPa | - | - | - | - |
| 1788289387 | 10° C | 81% | 1007 hPa | - | - | - | - |
| 1788287589 | 11.67° C | 66% | 1007 hPa | - | - | - | - |
| 1788285788 | 11.67° C | 71% | 1007 hPa | - | - | - | - |
| 1788283987 | 12.78° C | 66% | 1007 hPa | - | - | - | - |
| 1788282187 | 12.78° C | 66% | 1007 hPa | - | - | - | - |
| 1788280388 | 13.89° C | 58% | 1007 hPa | - | - | - | - |
| 1788278588 | 13.89° C | 62% | 1007 hPa | - | - | - | - |
| 1788276787 | 12.78° C | 71% | 1007 hPa | - | - | - | - |
| 1788274988 | 15° C | 62% | 1007 hPa | - | - | - | - |
| 1788273188 | 15° C | 58% | 1007 hPa | - | - | - | - |
| 1788271387 | 15° C | 62% | 1006 hPa | - | - | - | - |
| 1788267787 | 12.78° C | 71% | 1007 hPa | - | - | - | - |
| 1788265987 | 15° C | 67% | 1007 hPa | - | - | - | - |
| 1788264188 | 13.89° C | 71% | 1006 hPa | - | - | - | - |
* Rain since midnight (hover to see other rain measurements)
** Current wind speed in m/s (hover to see current wind gust speed)